Greenland, New Hampshire, United States (03840)
Lat: 43.04N, Lon: 70.83W
Wx Zone: NHZ014
Local Info
Past Weather Observations for Sunday, July 20, 2014

NOTE: This archive is for the closest National Weather Service station to Greenland. Information may differ from the station used for current weather conditions.

Click here for Long-term Archive

Time Weather Temperature Dewpoint Humidity Pressure Winds Precip Visibility
23:58
Partly Cloudy
61°F / 16°C 59°F / 15°C 94% 30.18 in
(1022 mb)
Variable 4.6 mph
(Variable 7 kph)
- 10SM
23:28
Mostly Cloudy
61°F / 16°C 59°F / 15°C 94% 30.18 in
(1022 mb)
NNW 3.5 mph
(NNW 6 kph)
- 10SM
22:58
Clear
61°F / 16°C 57°F / 14°C 88% 30.18 in
(1022 mb)
N 3.5 mph
(N 6 kph)
- 10SM
21:58
Clear
61°F / 16°C 59°F / 15°C 94% 30.18 in
(1022 mb)
N 2.3 mph
(N 4 kph)
- 10SM
20:58
Clear
64°F / 18°C 61°F / 16°C 88% 30.18 in
(1022 mb)
NNE 2.3 mph
(NNE 4 kph)
- 10SM
20:27
Clear
64°F / 18°C 61°F / 16°C 88% 30.18 in
(1022 mb)
ENE 2.3 mph
(ENE 4 kph)
- 10SM
19:58
Clear
64°F / 18°C 61°F / 16°C 88% 30.18 in
(1022 mb)
NE 5.8 mph
(NE 9 kph)
- 10SM
18:58
Partly Cloudy
66°F / 19°C 59°F / 15°C 78% 30.18 in
(1022 mb)
ENE 8.1 mph
(ENE 13 kph)
- 10SM
17:58
Partly Cloudy
70°F / 21°C 59°F / 15°C 69% 30.18 in
(1022 mb)
E 10.4 mph
(E 17 kph)
- 10SM
16:58
Mostly Cloudy
70°F / 21°C 61°F / 16°C 73% 30.15 in
(1021 mb)
E 10.4 mph
(E 17 kph)
- 10SM
15:58
Mostly Cloudy
70°F / 21°C 61°F / 16°C 73% 30.18 in
(1022 mb)
E 8.1 mph
(E 13 kph)
- 10SM
14:58
Mostly Cloudy
72°F / 22°C 59°F / 15°C 65% 30.18 in
(1022 mb)
ESE 9.2 mph
(ESE 15 kph)
- 10SM
13:58
Mostly Cloudy
75°F / 24°C 57°F / 14°C 54% 30.18 in
(1022 mb)
E 9.2 mph
(E 15 kph)
- 10SM
12:58
Mostly Cloudy
73°F / 23°C 57°F / 14°C 57% 30.18 in
(1022 mb)
SE 4.6 mph
(SE 7 kph)
- 10SM
11:58
Mostly Cloudy
73°F / 23°C 57°F / 14°C 57% 30.21 in
(1023 mb)
Variable 4.6 mph
(Variable 7 kph)
- 10SM
10:58
Mostly Cloudy
73°F / 23°C 57°F / 14°C 57% 30.21 in
(1023 mb)
E 5.8 mph
(E 9 kph)
- 10SM
09:58
Mostly Cloudy
70°F / 21°C 57°F / 14°C 64% 30.21 in
(1023 mb)
ENE 6.9 mph
(ENE 11 kph)
- 10SM
08:58
Mostly Cloudy
70°F / 21°C 54°F / 12°C 57% 30.21 in
(1023 mb)
E 5.8 mph
(E 9 kph)
- 10SM
07:58
Mostly Cloudy
70°F / 21°C 54°F / 12°C 57% 30.21 in
(1023 mb)
Calm - 10SM
06:58
Mostly Cloudy
66°F / 19°C 57°F / 14°C 73% 30.21 in
(1023 mb)
Calm - 10SM
05:58
Overcast
63°F / 17°C 59°F / 15°C 88% 30.21 in
(1023 mb)
N 4.6 mph
(N 7 kph)
- 10SM
04:58
Mostly Cloudy
61°F / 16°C 57°F / 14°C 88% 30.21 in
(1023 mb)
NNW 1.2 mph
(NNW 2 kph)
- 7SM
03:58
Mostly Cloudy
61°F / 16°C 57°F / 14°C 88% 30.18 in
(1022 mb)
E 3.5 mph
(E 6 kph)
- 10SM
02:58
Mostly Cloudy
63°F / 17°C 59°F / 15°C 88% 30.21 in
(1023 mb)
E 1.2 mph
(E 2 kph)
- 10SM
01:58
Mostly Cloudy
63°F / 17°C 59°F / 15°C 88% 30.21 in
(1023 mb)
E 4.6 mph
(E 7 kph)
- 10SM
00:58
Overcast
63°F / 17°C 59°F / 15°C 88% 30.21 in
(1023 mb)
Calm - 10SM
Time Weather Temperature Dewpoint Humidity Pressure Winds Precip Visibility


Weather for websites

WeatherForYou.com, LLC is not responsible for any damages or problems caused by this service. Current weather conditions are obtained from the closest station including government and personal stations which may have varying degrees of accuracy. Weather forecasts are derived from the NOAA NDFD. Like all things, this site belongs to Jesus Christ... He just trusts me to maintain it. If you have any questions or comments email webmaster@weatherforyou.com

Copyright © 2014, WeatherForYou.com LLC. All rights reserved.